| time (UTC) | temp F | wind direction | speed MPH | gust MPH | rain 1hr in | rain 24hr in | rain mn in | humidity % | barometer mb |
| 20260510215007 | 88 | 139 | 1.0 | 9.0 | 0.00 | 0.00 | 0.00 | 63 | 1013.0 |
| 20260510215004 | 88 | 97 | 2.0 | 5.0 | 0.00 | 0.00 | 0.00 | 63 | 1012.4 |
| 20260510214516 | 88 | 67 | 1.0 | 10.0 | 0.00 | 0.00 | 0.00 | 58 | 1012.7 |
| 20260510214009 | 89 | 84 | 3.0 | 7.0 | 0.00 | 0.00 | 0.00 | 58 | 1012.7 |
| 20260510214007 | 89 | 9 | 3.0 | 10.0 | 0.00 | 0.00 | 0.00 | 58 | 1013.4 |
| 20260510213514 | 88 | 283 | 1.0 | 8.0 | 0.00 | 0.00 | 0.00 | 59 | 1013.4 |
| 20260510213504 | 88 | 313 | 1.0 | 8.0 | 0.00 | 0.00 | 0.00 | 59 | 1012.8 |
| 20260510213026 | 87 | 136 | 2.0 | 8.0 | 0.00 | 0.00 | 0.00 | 58 | 1013.7 |
| 20260510213008 | 87 | 121 | 0.0 | 8.0 | 0.00 | 0.00 | 0.00 | 58 | 1013.0 |
| 20260510212506 | 89 | 132 | 1.0 | 7.0 | 0.00 | 0.00 | 0.00 | 55 | 1013.8 |
| 20260510212504 | 89 | 75 | 2.0 | 7.0 | 0.00 | 0.00 | 0.00 | 55 | 1013.0 |
| 20260510212013 | 89 | 118 | 3.0 | 6.0 | 0.00 | 0.00 | 0.00 | 56 | 1013.8 |
| 20260510212003 | 89 | 360 | 1.0 | 7.0 | 0.00 | 0.00 | 0.00 | 56 | 1013.0 |
| 20260510211528 | 89 | 128 | 2.0 | 4.0 | 0.00 | 0.00 | 0.00 | 61 | 1013.9 |
| 20260510211512 | 89 | 153 | 1.0 | 6.0 | 0.00 | 0.00 | 0.00 | 61 | 1013.1 |
| 20260510211008 | 88 | 159 | 1.0 | 5.0 | 0.00 | 0.00 | 0.00 | 57 | 1014.0 |
| 20260510211005 | 88 | 81 | 0.0 | 7.0 | 0.00 | 0.00 | 0.00 | 57 | 1013.2 |
| 20260510210507 | 88 | 186 | 1.0 | 5.0 | 0.00 | 0.00 | 0.00 | 60 | 1014.1 |
| 20260510210503 | 88 | 51 | 2.0 | 7.0 | 0.00 | 0.00 | 0.00 | 60 | 1013.3 |
| 20260510210016 | 88 | 15 | 1.0 | 6.0 | 0.00 | 0.00 | 0.00 | 58 | 1014.0 |
| 20260510210008 | 88 | 151 | 2.0 | 6.0 | 0.00 | 0.00 | 0.00 | 58 | 1013.2 |
| 20260510205506 | 86 | 31 | 1.0 | 6.0 | 0.00 | 0.00 | 0.00 | 60 | 1014.1 |
| 20260510205009 | 88 | 153 | 5.0 | 12.0 | 0.00 | 0.00 | 0.00 | 60 | 1013.2 |
| 20260510204521 | 87 | 130 | 1.0 | 5.0 | 0.00 | 0.00 | 0.00 | 62 | 1014.0 |
| 20260510204504 | 87 | 43 | 1.0 | 6.0 | 0.00 | 0.00 | 0.00 | 62 | 1013.2 |
| 20260510204007 | 88 | 118 | 2.0 | 4.0 | 0.00 | 0.00 | 0.00 | 58 | 1014.0 |
| 20260510204002 | 88 | 297 | 2.0 | 8.0 | 0.00 | 0.00 | 0.00 | 58 | 1013.2 |
| 20260510203506 | 88 | 128 | 1.0 | 3.0 | 0.00 | 0.00 | 0.00 | 63 | 1013.9 |
| 20260510203502 | 88 | 61 | 2.0 | 9.0 | 0.00 | 0.00 | 0.00 | 63 | 1013.2 |
| 20260510203027 | 87 | 230 | 1.0 | 7.0 | 0.00 | 0.00 | 0.00 | 60 | 1013.9 |
| 20260510203005 | 87 | 130 | 1.0 | 9.0 | 0.00 | 0.00 | 0.00 | 60 | 1013.1 |
| 20260510202509 | 88 | 245 | 1.0 | 7.0 | 0.00 | 0.00 | 0.00 | 60 | 1014.0 |
| 20260510202504 | 88 | 167 | 5.0 | 9.0 | 0.00 | 0.00 | 0.00 | 60 | 1013.2 |
| 20260510202010 | 88 | 91 | 1.0 | 3.0 | 0.00 | 0.00 | 0.00 | 61 | 1014.0 |
| 20260510202005 | 88 | 144 | 2.0 | 8.0 | 0.00 | 0.00 | 0.00 | 61 | 1013.2 |
| 20260510201521 | 88 | 143 | 1.0 | 4.0 | 0.00 | 0.00 | 0.00 | 63 | 1014.0 |
| 20260510201510 | 88 | 162 | 2.0 | 8.0 | 0.00 | 0.00 | 0.00 | 63 | 1013.2 |
| 20260510201009 | 88 | 187 | 1.0 | 5.0 | 0.00 | 0.00 | 0.00 | 61 | 1013.9 |
| 20260510201002 | 88 | 159 | 1.0 | 9.0 | 0.00 | 0.00 | 0.00 | 61 | 1013.2 |
| 20260510200507 | 88 | 82 | 1.0 | 6.0 | 0.00 | 0.00 | 0.00 | 58 | 1014.0 |
| 20260510200504 | 88 | 153 | 3.0 | 9.0 | 0.00 | 0.00 | 0.00 | 58 | 1013.1 |
| 20260510200018 | 89 | 168 | 1.0 | 6.0 | 0.00 | 0.00 | 0.00 | 58 | 1014.0 |
| 20260510200012 | 89 | 165 | 2.0 | 9.0 | 0.00 | 0.00 | 0.00 | 58 | 1013.2 |
| 20260510195505 | 89 | 168 | 1.0 | 6.0 | 0.00 | 0.00 | 0.00 | 58 | 1014.2 |
| 20260510195503 | 89 | 121 | 1.0 | 9.0 | 0.00 | 0.00 | 0.00 | 58 | 1013.3 |
| 20260510195005 | 87 | 205 | 1.0 | 7.0 | 0.00 | 0.00 | 0.00 | 59 | 1014.2 |
| 20260510195002 | 87 | 165 | 2.0 | 9.0 | 0.00 | 0.00 | 0.00 | 59 | 1013.4 |
| 20260510194521 | 88 | 202 | 1.0 | 7.0 | 0.00 | 0.00 | 0.00 | 61 | 1014.2 |
| 20260510194515 | 88 | 149 | 2.0 | 9.0 | 0.00 | 0.00 | 0.00 | 61 | 1013.5 |
| 20260510194008 | 88 | 154 | 2.0 | 9.0 | 0.00 | 0.00 | 0.00 | 60 | 1013.4 |
| 20260510193506 | 88 | 154 | 1.0 | 4.0 | 0.00 | 0.00 | 0.00 | 62 | 1014.3 |
| 20260510193024 | 87 | 231 | 2.0 | 9.0 | 0.00 | 0.00 | 0.00 | 62 | 1014.3 |
| 20260510193002 | 87 | 102 | 3.0 | 10.0 | 0.00 | 0.00 | 0.00 | 62 | 1013.6 |
| 20260510192507 | 87 | 148 | 3.0 | 9.0 | 0.00 | 0.00 | 0.00 | 62 | 1014.3 |
| 20260510192503 | 87 | 74 | 3.0 | 9.0 | 0.00 | 0.00 | 0.00 | 62 | 1013.5 |
| 20260510192009 | 87 | 100 | 1.0 | 7.0 | 0.00 | 0.00 | 0.00 | 59 | 1014.3 |
| 20260510192003 | 87 | 147 | 3.0 | 11.0 | 0.00 | 0.00 | 0.00 | 59 | 1013.5 |
| 20260510191534 | 87 | 250 | 1.0 | 5.0 | 0.00 | 0.00 | 0.00 | 60 | 1014.3 |
| 20260510191508 | 87 | 69 | 3.0 | 12.0 | 0.00 | 0.00 | 0.00 | 60 | 1013.5 |
| 20260510191011 | 87 | 197 | 1.0 | 4.0 | 0.00 | 0.00 | 0.00 | 62 | 1014.4 |
| 20260510191005 | 87 | 111 | 4.0 | 12.0 | 0.00 | 0.00 | 0.00 | 62 | 1013.6 |
| 20260510190506 | 87 | 144 | 4.0 | 12.0 | 0.00 | 0.00 | 0.00 | 63 | 1013.5 |
| 20260510190032 | 87 | 210 | 2.0 | 6.0 | 0.00 | 0.00 | 0.00 | 62 | 1014.2 |
| 20260510190006 | 87 | 117 | 3.0 | 12.0 | 0.00 | 0.00 | 0.00 | 62 | 1013.4 |
| 20260510185507 | 86 | 192 | 2.0 | 10.0 | 0.00 | 0.00 | 0.00 | 64 | 1014.2 |
| 20260510185504 | 86 | 188 | 4.0 | 10.0 | 0.00 | 0.00 | 0.00 | 64 | 1013.3 |
| 20260510185007 | 87 | 141 | 3.0 | 10.0 | 0.00 | 0.00 | 0.00 | 64 | 1013.5 |
| 20260510184524 | 87 | 159 | 3.0 | 8.0 | 0.00 | 0.00 | 0.00 | 65 | 1014.2 |
| 20260510184508 | 87 | 156 | 3.0 | 9.0 | 0.00 | 0.00 | 0.00 | 65 | 1013.6 |
| 20260510184009 | 86 | 159 | 4.0 | 12.0 | 0.00 | 0.00 | 0.00 | 66 | 1013.6 |
| 20260510183507 | 86 | 158 | 3.0 | 12.0 | 0.00 | 0.00 | 0.00 | 67 | 1013.7 |
| 20260510183034 | 85 | 68 | 2.0 | 7.0 | 0.00 | 0.00 | 0.00 | 65 | 1014.5 |
| 20260510183029 | 85 | 153 | 2.0 | 10.0 | 0.00 | 0.00 | 0.00 | 65 | 1013.8 |
| 20260510182507 | 86 | 158 | 2.0 | 6.0 | 0.00 | 0.00 | 0.00 | 67 | 1014.6 |
| 20260510182010 | 86 | 163 | 1.0 | 6.0 | 0.00 | 0.00 | 0.00 | 67 | 1014.7 |
| 20260510182005 | 86 | 63 | 4.0 | 12.0 | 0.00 | 0.00 | 0.00 | 67 | 1014.0 |
| 20260510181518 | 86 | 163 | 1.0 | 6.0 | 0.00 | 0.00 | 0.00 | 68 | 1014.9 |
| 20260510181506 | 86 | 215 | 3.0 | 12.0 | 0.00 | 0.00 | 0.00 | 68 | 1014.1 |
| 20260510181009 | 85 | 163 | 2.0 | 7.0 | 0.00 | 0.00 | 0.00 | 64 | 1014.9 |
| 20260510181006 | 85 | 68 | 2.0 | 12.0 | 0.00 | 0.00 | 0.00 | 64 | 1014.2 |
| 20260510180514 | 84 | 221 | 2.0 | 7.0 | 0.00 | 0.00 | 0.00 | 70 | 1015.0 |
| 20260510180506 | 84 | 148 | 2.0 | 12.0 | 0.00 | 0.00 | 0.00 | 70 | 1014.2 |
| 20260510180043 | 85 | 178 | 1.0 | 6.0 | 0.00 | 0.00 | 0.00 | 67 | 1015.0 |
| 20260510180009 | 85 | 162 | 3.0 | 12.0 | 0.00 | 0.00 | 0.00 | 67 | 1014.3 |
| 20260510175506 | 85 | 56 | 2.0 | 12.0 | 0.00 | 0.00 | 0.00 | 69 | 1014.3 |
| 20260510175010 | 84 | 349 | 2.0 | 5.0 | 0.00 | 0.00 | 0.00 | 69 | 1015.2 |
| 20260510175002 | 84 | 158 | 4.0 | 12.0 | 0.00 | 0.00 | 0.00 | 69 | 1014.3 |
| 20260510174527 | 84 | 120 | 2.0 | 4.0 | 0.00 | 0.00 | 0.00 | 71 | 1015.3 |
| 20260510174513 | 84 | 146 | 3.0 | 12.0 | 0.00 | 0.00 | 0.00 | 71 | 1014.5 |
| 20260510174008 | 83 | 172 | 1.0 | 5.0 | 0.00 | 0.00 | 0.00 | 71 | 1015.2 |
| 20260510173508 | 82 | 120 | 4.0 | 9.0 | 0.00 | 0.00 | 0.00 | 74 | 1014.6 |
| 20260510173020 | 82 | 223 | 0.0 | 4.0 | 0.00 | 0.00 | 0.00 | 73 | 1015.4 |
| 20260510173009 | 82 | 142 | 2.0 | 10.0 | 0.00 | 0.00 | 0.00 | 73 | 1014.6 |
| 20260510172511 | 82 | 164 | 1.0 | 5.0 | 0.00 | 0.00 | 0.00 | 71 | 1015.5 |
| 20260510172505 | 82 | 148 | 3.0 | 9.0 | 0.00 | 0.00 | 0.00 | 70 | 1014.7 |
| 20260510172012 | 83 | 106 | 2.0 | 8.0 | 0.00 | 0.00 | 0.00 | 71 | 1014.8 |
| 20260510172007 | 83 | 275 | 2.0 | 6.0 | 0.00 | 0.00 | 0.00 | 71 | 1015.6 |
| 20260510171521 | 81 | 197 | 2.0 | 9.0 | 0.00 | 0.00 | 0.00 | 73 | 1015.6 |
| 20260510171507 | 81 | 63 | 2.0 | 9.0 | 0.00 | 0.00 | 0.00 | 73 | 1014.9 |
| 20260510171007 | 81 | 207 | 1.0 | 9.0 | 0.00 | 0.00 | 0.00 | 72 | 1015.7 |
| 20260510171002 | 81 | 34 | 2.0 | 9.0 | 0.00 | 0.00 | 0.00 | 72 | 1015.0 |
| 20260510170508 | 82 | 113 | 2.0 | 7.0 | 0.00 | 0.00 | 0.00 | 73 | 1015.9 |
| 20260510170502 | 82 | 157 | 3.0 | 9.0 | 0.00 | 0.00 | 0.00 | 73 | 1015.0 |
| 20260510170024 | 81 | 227 | 2.0 | 8.0 | 0.00 | 0.00 | 0.00 | 75 | 1016.0 |
| 20260510170011 | 81 | 97 | 4.0 | 9.0 | 0.00 | 0.00 | 0.00 | 75 | 1015.2 |
| 20260510165510 | 81 | 107 | 2.0 | 8.0 | 0.00 | 0.00 | 0.00 | 74 | 1016.0 |
| 20260510165502 | 81 | 101 | 2.0 | 8.0 | 0.00 | 0.00 | 0.00 | 73 | 1015.3 |
| 20260510165006 | 81 | 139 | 1.0 | 8.0 | 0.00 | 0.00 | 0.00 | 75 | 1016.1 |
| 20260510164528 | 80 | 111 | 1.0 | 6.0 | 0.00 | 0.00 | 0.00 | 77 | 1016.1 |
| 20260510164513 | 80 | 194 | 2.0 | 7.0 | 0.00 | 0.00 | 0.00 | 77 | 1015.4 |
| 20260510164005 | 81 | 111 | 3.0 | 6.0 | 0.00 | 0.00 | 0.00 | 73 | 1016.2 |
| 20260510163510 | 80 | 210 | 2.0 | 6.0 | 0.00 | 0.00 | 0.00 | 77 | 1015.4 |
| 20260510163505 | 80 | 86 | 1.0 | 3.0 | 0.00 | 0.00 | 0.00 | 77 | 1016.1 |
| 20260510163021 | 79 | 157 | 1.0 | 8.0 | 0.00 | 0.00 | 0.00 | 80 | 1016.1 |
| 20260510162512 | 78 | 163 | 2.0 | 9.0 | 0.00 | 0.00 | 0.00 | 78 | 1015.3 |
| 20260510162506 | 78 | 350 | 1.0 | 8.0 | 0.00 | 0.00 | 0.00 | 78 | 1016.1 |
| 20260510162007 | 78 | 352 | 1.0 | 5.0 | 0.00 | 0.00 | 0.00 | 78 | 1016.1 |
| 20260510162003 | 78 | 170 | 1.0 | 9.0 | 0.00 | 0.00 | 0.00 | 78 | 1015.4 |
| 20260510161519 | 78 | 142 | 3.0 | 9.0 | 0.00 | 0.00 | 0.00 | 80 | 1015.4 |
| 20260510161515 | 78 | 202 | 1.0 | 5.0 | 0.00 | 0.00 | 0.00 | 80 | 1016.1 |
| 20260510161007 | 78 | 156 | 2.0 | 9.0 | 0.00 | 0.00 | 0.00 | 81 | 1015.4 |
| 20260510160510 | 77 | 273 | 1.0 | 6.0 | 0.00 | 0.00 | 0.00 | 80 | 1016.1 |
| 20260510160503 | 77 | 164 | 3.0 | 8.0 | 0.00 | 0.00 | 0.00 | 80 | 1015.5 |
| 20260510160035 | 77 | 230 | 1.0 | 6.0 | 0.00 | 0.00 | 0.00 | 81 | 1016.0 |
| 20260510160008 | 77 | 153 | 3.0 | 8.0 | 0.00 | 0.00 | 0.00 | 81 | 1015.4 |
| 20260510155512 | 77 | 138 | 1.0 | 4.0 | 0.00 | 0.00 | 0.00 | 82 | 1015.8 |
| 20260510155502 | 77 | 56 | 3.0 | 8.0 | 0.00 | 0.00 | 0.00 | 82 | 1015.2 |
| 20260510155010 | 77 | 151 | 1.0 | 4.0 | 0.00 | 0.00 | 0.00 | 83 | 1015.8 |
| 20260510155002 | 77 | 147 | 2.0 | 8.0 | 0.00 | 0.00 | 0.00 | 83 | 1015.2 |
| 20260510154524 | 76 | 309 | 1.0 | 3.0 | 0.00 | 0.00 | 0.00 | 84 | 1015.8 |
| 20260510154509 | 76 | 133 | 2.0 | 8.0 | 0.00 | 0.00 | 0.00 | 84 | 1015.3 |
| 20260510154007 | 76 | 131 | 2.0 | 7.0 | 0.00 | 0.00 | 0.00 | 85 | 1015.3 |
| 20260510154004 | 76 | 159 | 0.0 | 4.0 | 0.00 | 0.00 | 0.00 | 85 | 1015.9 |
| 20260510153507 | 75 | 111 | 1.0 | 4.0 | 0.00 | 0.00 | 0.00 | 86 | 1015.9 |
| 20260510153502 | 75 | 157 | 3.0 | 7.0 | 0.00 | 0.00 | 0.00 | 86 | 1015.3 |
| 20260510153024 | 75 | 225 | 1.0 | 4.0 | 0.00 | 0.00 | 0.00 | 86 | 1015.9 |
| 20260510152508 | 75 | 100 | 1.0 | 4.0 | 0.00 | 0.00 | 0.00 | 86 | 1015.9 |
| 20260510152007 | 75 | 134 | 3.0 | 7.0 | 0.00 | 0.00 | 0.00 | 87 | 1015.2 |
| 20260510151531 | 75 | 159 | 1.0 | 6.0 | 0.00 | 0.00 | 0.00 | 86 | 1015.1 |
| 20260510151522 | 75 | 146 | 0.0 | 4.0 | 0.00 | 0.00 | 0.00 | 86 | 1015.8 |
| 20260510151008 | 75 | 211 | 0.0 | 4.0 | 0.00 | 0.00 | 0.00 | 86 | 1015.8 |
| 20260510151004 | 75 | 156 | 2.0 | 5.0 | 0.00 | 0.00 | 0.00 | 86 | 1015.1 |
| 20260510150507 | 75 | 60 | 1.0 | 4.0 | 0.00 | 0.00 | 0.00 | 86 | 1015.1 |
| 20260510150024 | 74 | 138 | 1.0 | 3.0 | 0.00 | 0.00 | 0.00 | 86 | 1015.2 |
| 20260510150022 | 74 | 151 | 1.0 | 4.0 | 0.00 | 0.00 | 0.00 | 86 | 1015.9 |
| 20260510145512 | 74 | 190 | 1.0 | 3.0 | 0.00 | 0.00 | 0.00 | 86 | 1015.9 |
| 20260510145504 | 74 | 79 | 1.0 | 4.0 | 0.00 | 0.00 | 0.00 | 86 | 1015.1 |
| 20260510145005 | 75 | 57 | 2.0 | 4.0 | 0.00 | 0.00 | 0.00 | 86 | 1015.2 |
| 20260510145003 | 75 | 56 | 0.0 | 4.0 | 0.00 | 0.00 | 0.00 | 86 | 1015.9 |
| 20260510144525 | 74 | 340 | 1.0 | 4.0 | 0.00 | 0.00 | 0.00 | 87 | 1015.8 |
| 20260510144510 | 74 | 22 | 1.0 | 4.0 | 0.00 | 0.00 | 0.00 | 87 | 1015.0 |
| 20260510144010 | 74 | 114 | 1.0 | 4.0 | 0.00 | 0.00 | 0.00 | 86 | 1015.8 |
| 20260510144004 | 74 | 31 | 1.0 | 4.0 | 0.00 | 0.00 | 0.00 | 86 | 1014.9 |
| 20260510143510 | 74 | 104 | 0.0 | 4.0 | 0.00 | 0.00 | 0.00 | 87 | 1015.7 |
| 20260510143502 | 74 | 151 | 2.0 | 5.0 | 0.00 | 0.00 | 0.00 | 87 | 1014.9 |
| 20260510143020 | 74 | 87 | 2.0 | 7.0 | 0.00 | 0.00 | 0.00 | 86 | 1014.9 |
| 20260510143016 | 74 | 180 | 1.0 | 5.0 | 0.00 | 0.00 | 0.00 | 86 | 1015.7 |
| 20260510142510 | 74 | 148 | 2.0 | 7.0 | 0.00 | 0.00 | 0.00 | 87 | 1014.8 |
| 20260510142508 | 74 | 242 | 0.0 | 6.0 | 0.00 | 0.00 | 0.00 | 87 | 1015.6 |
| 20260510142010 | 74 | 111 | 1.0 | 6.0 | 0.00 | 0.00 | 0.00 | 87 | 1015.5 |
| 20260510141516 | 73 | 154 | 2.0 | 7.0 | 0.00 | 0.00 | 0.00 | 87 | 1014.7 |
| 20260510141514 | 73 | 109 | 1.0 | 3.0 | 0.00 | 0.00 | 0.00 | 87 | 1015.5 |
| 20260510141011 | 73 | 193 | 1.0 | 3.0 | 0.00 | 0.00 | 0.00 | 87 | 1015.5 |
| 20260510141009 | 73 | 155 | 2.0 | 7.0 | 0.00 | 0.00 | 0.00 | 87 | 1014.7 |
| 20260510140512 | 73 | 96 | 1.0 | 7.0 | 0.00 | 0.00 | 0.00 | 87 | 1015.4 |
| 20260510140507 | 73 | 90 | 1.0 | 7.0 | 0.00 | 0.00 | 0.00 | 87 | 1014.6 |
| 20260510140027 | 73 | 157 | 0.0 | 7.0 | 0.00 | 0.00 | 0.00 | 86 | 1015.4 |
| 20260510140010 | 73 | 111 | 1.0 | 7.0 | 0.00 | 0.00 | 0.00 | 86 | 1014.5 |
| 20260510135507 | 73 | 158 | 2.0 | 6.0 | 0.00 | 0.00 | 0.00 | 88 | 1014.4 |
| 20260510135007 | 72 | 159 | 0.0 | 6.0 | 0.00 | 0.00 | 0.00 | 87 | 1015.2 |
| 20260510134526 | 72 | 163 | 1.0 | 6.0 | 0.00 | 0.00 | 0.00 | 87 | 1014.3 |
| 20260510134524 | 72 | 127 | 2.0 | 6.0 | 0.00 | 0.00 | 0.00 | 87 | 1015.1 |
| 20260510134006 | 71 | 115 | 1.0 | 6.0 | 0.00 | 0.00 | 0.00 | 88 | 1015.1 |
| 20260510134003 | 71 | 71 | 1.0 | 6.0 | 0.00 | 0.00 | 0.00 | 88 | 1014.2 |
| 20260510133507 | 71 | 125 | 1.0 | 3.0 | 0.00 | 0.00 | 0.00 | 89 | 1014.9 |
| 20260510133503 | 71 | 152 | 2.0 | 6.0 | 0.00 | 0.00 | 0.00 | 89 | 1014.0 |
| 20260510133027 | 71 | 114 | 0.0 | 4.0 | 0.00 | 0.00 | 0.00 | 90 | 1014.7 |
| 20260510133011 | 71 | 148 | 1.0 | 6.0 | 0.00 | 0.00 | 0.00 | 90 | 1014.0 |
| 20260510132511 | 70 | 192 | 0.0 | 4.0 | 0.00 | 0.00 | 0.00 | 90 | 1014.7 |
| 20260510132506 | 70 | 155 | 2.0 | 6.0 | 0.00 | 0.00 | 0.00 | 90 | 1014.0 |
| 20260510132007 | 70 | 156 | 1.0 | 4.0 | 0.00 | 0.00 | 0.00 | 91 | 1014.6 |
| 20260510131518 | 69 | 149 | 1.0 | 3.0 | 0.00 | 0.00 | 0.00 | 92 | 1013.7 |
| 20260510131007 | 69 | 119 | 0.0 | 3.0 | 0.00 | 0.00 | 0.00 | 92 | 1014.4 |
| 20260510131004 | 69 | 74 | 1.0 | 3.0 | 0.00 | 0.00 | 0.00 | 92 | 1013.7 |
| 20260510130505 | 68 | 138 | 0.0 | 2.0 | 0.00 | 0.00 | 0.00 | 93 | 1014.4 |
| 20260510130038 | 67 | 82 | 0.0 | 2.0 | 0.00 | 0.00 | 0.00 | 93 | 1013.6 |
| 20260510130027 | 67 | 136 | 0.0 | 2.0 | 0.00 | 0.00 | 0.00 | 93 | 1014.4 |
| 20260510125507 | 67 | 97 | 0.0 | 2.0 | 0.00 | 0.00 | 0.00 | 93 | 1013.6 |
| 20260510125006 | 67 | 97 | 0.0 | 2.0 | 0.00 | 0.00 | 0.00 | 93 | 1013.5 |
| 20260510124521 | 66 | 189 | 0.0 | 2.0 | 0.00 | 0.00 | 0.00 | 93 | 1013.4 |
| 20260510124518 | 66 | 126 | 0.0 | 2.0 | 0.00 | 0.00 | 0.00 | 93 | 1014.1 |
| 20260510124011 | 66 | 186 | 0.0 | 2.0 | 0.00 | 0.00 | 0.00 | 93 | 1014.0 |
| 20260510124009 | 66 | 189 | 0.0 | 2.0 | 0.00 | 0.00 | 0.00 | 93 | 1013.3 |
| 20260510123511 | 66 | 189 | 0.0 | 2.0 | 0.00 | 0.00 | 0.00 | 93 | 1013.2 |
| 20260510123016 | 66 | 189 | 0.0 | 2.0 | 0.00 | 0.00 | 0.00 | 93 | 1013.0 |
| 20260510122509 | 65 | 186 | 0.0 | 2.0 | 0.00 | 0.00 | 0.00 | 93 | 1013.6 |
| 20260510122505 | 65 | 189 | 0.0 | 2.0 | 0.00 | 0.00 | 0.00 | 93 | 1012.9 |
| 20260510122011 | 65 | 186 | 0.0 | 0.0 | 0.00 | 0.00 | 0.00 | 93 | 1013.5 |
| 20260510122008 | 65 | 189 | 0.0 | 2.0 | 0.00 | 0.00 | 0.00 | 93 | 1012.8 |
| 20260510121527 | 65 | 186 | 0.0 | 0.0 | 0.00 | 0.00 | 0.00 | 93 | 1013.6 |
| 20260510121512 | 65 | 189 | 0.0 | 2.0 | 0.00 | 0.00 | 0.00 | 93 | 1012.9 |
| 20260510121008 | 65 | 186 | 0.0 | 0.0 | 0.00 | 0.00 | 0.00 | 93 | 1013.6 |
| 20260510121005 | 65 | 189 | 0.0 | 2.0 | 0.00 | 0.00 | 0.00 | 93 | 1012.9 |
| 20260510120508 | 64 | 186 | 0.0 | 0.0 | 0.00 | 0.00 | 0.00 | 93 | 1013.6 |
| 20260510120505 | 64 | 189 | 0.0 | 2.0 | 0.00 | 0.00 | 0.00 | 93 | 1012.8 |
| 20260510120019 | 64 | 186 | 0.0 | 0.0 | 0.00 | 0.00 | 0.00 | 93 | 1013.5 |
| 20260510120014 | 64 | 189 | 0.0 | 0.0 | 0.00 | 0.00 | 0.00 | 93 | 1012.8 |
| 20260510115507 | 64 | 186 | 0.0 | 0.0 | 0.00 | 0.00 | 0.00 | 93 | 1013.6 |
| 20260510115502 | 64 | 189 | 0.0 | 0.0 | 0.00 | 0.00 | 0.00 | 93 | 1012.8 |
| 20260510115008 | 64 | 186 | 0.0 | 0.0 | 0.00 | 0.00 | 0.00 | 92 | 1013.5 |
| 20260510115002 | 64 | 189 | 0.0 | 0.0 | 0.00 | 0.00 | 0.00 | 92 | 1012.7 |
| 20260510114523 | 65 | 186 | 0.0 | 0.0 | 0.00 | 0.00 | 0.00 | 92 | 1013.3 |
| 20260510114513 | 65 | 189 | 0.0 | 2.0 | 0.00 | 0.00 | 0.00 | 92 | 1012.5 |
| 20260510114010 | 65 | 186 | 0.0 | 0.0 | 0.00 | 0.00 | 0.00 | 92 | 1013.3 |
| 20260510114003 | 65 | 189 | 0.0 | 2.0 | 0.00 | 0.00 | 0.00 | 92 | 1012.4 |
| 20260510113506 | 65 | 186 | 0.0 | 0.0 | 0.00 | 0.00 | 0.00 | 92 | 1013.3 |
| 20260510113502 | 65 | 189 | 0.0 | 1.0 | 0.00 | 0.00 | 0.00 | 92 | 1012.5 |
| 20260510113030 | 65 | 186 | 0.0 | 0.0 | 0.00 | 0.00 | 0.00 | 92 | 1013.1 |
| 20260510113005 | 65 | 189 | 0.0 | 2.0 | 0.00 | 0.00 | 0.00 | 92 | 1012.3 |
| 20260510112512 | 65 | 186 | 0.0 | 0.0 | 0.00 | 0.00 | 0.00 | 92 | 1013.0 |
| 20260510112504 | 65 | 189 | 0.0 | 2.0 | 0.00 | 0.00 | 0.00 | 92 | 1012.2 |
| 20260510112007 | 65 | 186 | 0.0 | 0.0 | 0.00 | 0.00 | 0.00 | 91 | 1013.0 |
| 20260510112005 | 65 | 189 | 0.0 | 1.0 | 0.00 | 0.00 | 0.00 | 91 | 1012.3 |
| 20260510111503 | 66 | 189 | 0.0 | 2.0 | 0.00 | 0.00 | 0.00 | 91 | 1012.4 |
| 20260510111004 | 66 | 189 | 0.0 | 2.0 | 0.00 | 0.00 | 0.00 | 91 | 1012.2 |
| 20260510111002 | 66 | 186 | 0.0 | 0.0 | 0.00 | 0.00 | 0.00 | 91 | 1012.9 |
| 20260510110510 | 66 | 186 | 0.0 | 0.0 | 0.00 | 0.00 | 0.00 | 91 | 1012.8 |
| 20260510110507 | 66 | 189 | 0.0 | 1.0 | 0.00 | 0.00 | 0.00 | 91 | 1012.1 |
| 20260510110021 | 67 | 186 | 0.0 | 2.0 | 0.00 | 0.00 | 0.00 | 91 | 1012.7 |
| 20260510110005 | 67 | 189 | 0.0 | 2.0 | 0.00 | 0.00 | 0.00 | 91 | 1011.9 |
| 20260510105504 | 67 | 186 | 0.0 | 2.0 | 0.00 | 0.00 | 0.00 | 91 | 1012.5 |
| 20260510105003 | 67 | 186 | 0.0 | 2.0 | 0.00 | 0.00 | 0.00 | 90 | 1012.5 |
| 20260510104507 | 67 | 186 | 0.0 | 2.0 | 0.00 | 0.00 | 0.00 | 90 | 1012.3 |
| 20260510104504 | 67 | 189 | 0.0 | 2.0 | 0.00 | 0.00 | 0.00 | 90 | 1011.6 |
| 20260510104003 | 67 | 138 | 1.0 | 4.0 | 0.00 | 0.00 | 0.00 | 90 | 1011.5 |
| 20260510103502 | 68 | 230 | 0.0 | 2.0 | 0.00 | 0.00 | 0.00 | 90 | 1012.1 |
| 20260510103008 | 68 | 219 | 0.0 | 2.0 | 0.00 | 0.00 | 0.00 | 90 | 1012.0 |
| 20260510102504 | 68 | 202 | 0.0 | 2.0 | 0.00 | 0.00 | 0.00 | 90 | 1012.1 |
| 20260510102502 | 68 | 167 | 2.0 | 5.0 | 0.00 | 0.00 | 0.00 | 90 | 1011.4 |
| 20260510102007 | 68 | 153 | 2.0 | 5.0 | 0.00 | 0.00 | 0.00 | 89 | 1011.4 |
| 20260510102003 | 68 | 180 | 0.0 | 2.0 | 0.00 | 0.00 | 0.00 | 89 | 1012.1 |
| 20260510101514 | 68 | 174 | 2.0 | 4.0 | 0.00 | 0.00 | 0.00 | 89 | 1011.3 |
| 20260510101509 | 68 | 164 | 0.0 | 2.0 | 0.00 | 0.00 | 0.00 | 89 | 1012.0 |
| 20260510101005 | 68 | 162 | 2.0 | 4.0 | 0.00 | 0.00 | 0.00 | 89 | 1011.3 |
| 20260510101003 | 68 | 146 | 0.0 | 2.0 | 0.00 | 0.00 | 0.00 | 89 | 1012.0 |
| 20260510100511 | 68 | 162 | 0.0 | 2.0 | 0.00 | 0.00 | 0.00 | 89 | 1012.0 |
| 20260510100503 | 68 | 177 | 2.0 | 4.0 | 0.00 | 0.00 | 0.00 | 89 | 1011.3 |
| 20260510100008 | 68 | 155 | 2.0 | 7.0 | 0.00 | 0.00 | 0.00 | 89 | 1011.3 |
| 20260510095505 | 68 | 172 | 1.0 | 6.0 | 0.00 | 0.00 | 0.00 | 89 | 1011.3 |
| 20260510095503 | 68 | 189 | 0.0 | 2.0 | 0.00 | 0.00 | 0.00 | 89 | 1012.0 |
| 20260510095013 | 68 | 163 | 3.0 | 6.0 | 0.00 | 0.00 | 0.00 | 89 | 1011.2 |
| 20260510095009 | 68 | 187 | 0.0 | 3.0 | 0.00 | 0.00 | 0.00 | 89 | 1011.9 |
| 20260510094506 | 68 | 199 | 0.0 | 3.0 | 0.00 | 0.00 | 0.00 | 89 | 1011.9 |
| 20260510094003 | 68 | 209 | 0.0 | 2.0 | 0.00 | 0.00 | 0.00 | 89 | 1011.9 |
| 20260510093506 | 68 | 188 | 0.0 | 2.0 | 0.00 | 0.00 | 0.00 | 89 | 1011.9 |
| 20260510093502 | 68 | 155 | 2.0 | 8.0 | 0.00 | 0.00 | 0.00 | 89 | 1011.3 |
| 20260510093004 | 68 | 184 | 0.0 | 2.0 | 0.00 | 0.00 | 0.00 | 89 | 1011.8 |
| 20260510092504 | 68 | 164 | 2.0 | 6.0 | 0.00 | 0.00 | 0.00 | 89 | 1011.2 |
| 20260510092004 | 68 | 144 | 2.0 | 5.0 | 0.00 | 0.00 | 0.00 | 89 | 1011.4 |
| 20260510092002 | 68 | 221 | 0.0 | 2.0 | 0.00 | 0.00 | 0.00 | 89 | 1012.1 |
| 20260510091515 | 68 | 196 | 0.0 | 2.0 | 0.00 | 0.00 | 0.00 | 89 | 1012.1 |
| 20260510091508 | 68 | 183 | 3.0 | 5.0 | 0.00 | 0.00 | 0.00 | 89 | 1011.4 |
| 20260510091005 | 68 | 169 | 0.0 | 2.0 | 0.00 | 0.00 | 0.00 | 88 | 1012.0 |
| 20260510091001 | 68 | 157 | 2.0 | 5.0 | 0.00 | 0.00 | 0.00 | 88 | 1011.5 |
| 20260510090504 | 68 | 165 | 0.0 | 2.0 | 0.00 | 0.00 | 0.00 | 88 | 1012.0 |
| 20260510090016 | 68 | 176 | 0.0 | 2.0 | 0.00 | 0.00 | 0.00 | 88 | 1012.0 |
| 20260510090012 | 68 | 179 | 1.0 | 4.0 | 0.00 | 0.00 | 0.00 | 88 | 1011.3 |
| 20260510085504 | 68 | 194 | 0.0 | 3.0 | 0.00 | 0.00 | 0.00 | 88 | 1012.0 |
| 20260510085003 | 69 | 183 | 2.0 | 3.0 | 0.00 | 0.00 | 0.00 | 88 | 1011.4 |
| 20260510084516 | 69 | 166 | 0.0 | 2.0 | 0.00 | 0.00 | 0.00 | 88 | 1012.1 |
| 20260510084010 | 69 | 154 | 1.0 | 3.0 | 0.00 | 0.00 | 0.00 | 87 | 1011.4 |
| 20260510083505 | 69 | 170 | 0.0 | 2.0 | 0.00 | 0.00 | 0.00 | 87 | 1012.2 |
| 20260510083503 | 69 | 147 | 1.0 | 3.0 | 0.00 | 0.00 | 0.00 | 87 | 1011.5 |
| 20260510083010 | 69 | 170 | 0.0 | 2.0 | 0.00 | 0.00 | 0.00 | 87 | 1012.3 |
| 20260510083002 | 69 | 165 | 1.0 | 3.0 | 0.00 | 0.00 | 0.00 | 87 | 1011.6 |
| 20260510082502 | 69 | 165 | 0.0 | 5.0 | 0.00 | 0.00 | 0.00 | 86 | 1011.6 |
| 20260510082003 | 69 | 176 | 0.0 | 2.0 | 0.00 | 0.00 | 0.00 | 86 | 1012.3 |
| 20260510081522 | 69 | 176 | 0.0 | 2.0 | 0.00 | 0.00 | 0.00 | 86 | 1012.3 |
| 20260510081509 | 69 | 168 | 2.0 | 4.0 | 0.00 | 0.00 | 0.00 | 86 | 1011.6 |
| 20260510081003 | 70 | 169 | 0.0 | 2.0 | 0.00 | 0.00 | 0.00 | 85 | 1012.4 |
| 20260510080503 | 70 | 179 | 0.0 | 2.0 | 0.00 | 0.00 | 0.00 | 85 | 1012.4 |
| 20260510080011 | 70 | 184 | 1.0 | 2.0 | 0.00 | 0.00 | 0.00 | 85 | 1012.4 |
| 20260510080004 | 70 | 147 | 2.0 | 4.0 | 0.00 | 0.00 | 0.00 | 85 | 1011.7 |
| 20260510075503 | 70 | 138 | 1.0 | 3.0 | 0.00 | 0.00 | 0.00 | 85 | 1011.7 |
| 20260510075006 | 70 | 155 | 0.0 | 2.0 | 0.00 | 0.00 | 0.00 | 85 | 1012.4 |
| 20260510075004 | 70 | 166 | 1.0 | 4.0 | 0.00 | 0.00 | 0.00 | 85 | 1011.7 |
| 20260510074518 | 70 | 142 | 2.0 | 4.0 | 0.00 | 0.00 | 0.00 | 85 | 1011.8 |
| 20260510074516 | 70 | 140 | 0.0 | 3.0 | 0.00 | 0.00 | 0.00 | 85 | 1012.3 |
| 20260510074007 | 70 | 157 | 0.0 | 3.0 | 0.00 | 0.00 | 0.00 | 85 | 1012.3 |
| 20260510074005 | 70 | 173 | 1.0 | 4.0 | 0.00 | 0.00 | 0.00 | 85 | 1011.7 |
| 20260510073506 | 71 | 188 | 1.0 | 4.0 | 0.00 | 0.00 | 0.00 | 85 | 1011.8 |
| 20260510073504 | 71 | 165 | 0.0 | 2.0 | 0.00 | 0.00 | 0.00 | 85 | 1012.3 |
| 20260510073033 | 71 | 158 | 0.0 | 2.0 | 0.00 | 0.00 | 0.00 | 84 | 1012.3 |
| 20260510073022 | 71 | 153 | 2.0 | 7.0 | 0.00 | 0.00 | 0.00 | 84 | 1011.7 |
| 20260510072503 | 71 | 161 | 1.0 | 7.0 | 0.00 | 0.00 | 0.00 | 84 | 1011.7 |
| 20260510072005 | 71 | 164 | 3.0 | 7.0 | 0.00 | 0.00 | 0.00 | 84 | 1011.7 |
| 20260510072002 | 71 | 169 | 0.0 | 3.0 | 0.00 | 0.00 | 0.00 | 84 | 1012.3 |
| 20260510071512 | 71 | 211 | 0.0 | 2.0 | 0.00 | 0.00 | 0.00 | 83 | 1012.2 |
| 20260510071503 | 71 | 162 | 2.0 | 6.0 | 0.00 | 0.00 | 0.00 | 83 | 1011.6 |
| 20260510071006 | 72 | 156 | 0.0 | 4.0 | 0.00 | 0.00 | 0.00 | 83 | 1012.3 |
| 20260510071002 | 72 | 97 | 1.0 | 6.0 | 0.00 | 0.00 | 0.00 | 83 | 1011.6 |
| 20260510070503 | 72 | 145 | 1.0 | 7.0 | 0.00 | 0.00 | 0.00 | 83 | 1011.5 |
| 20260510070015 | 72 | 178 | 3.0 | 8.0 | 0.00 | 0.00 | 0.00 | 83 | 1011.6 |
| 20260510065504 | 72 | 142 | 3.0 | 8.0 | 0.00 | 0.00 | 0.00 | 83 | 1011.6 |
| 20260510065006 | 72 | 182 | 1.0 | 8.0 | 0.00 | 0.00 | 0.00 | 84 | 1011.6 |
| 20260510065003 | 72 | 149 | 0.0 | 3.0 | 0.00 | 0.00 | 0.00 | 84 | 1012.2 |
| 20260510064539 | 71 | 144 | 0.0 | 4.0 | 0.00 | 0.00 | 0.00 | 84 | 1012.2 |
| 20260510064526 | 71 | 144 | 2.0 | 8.0 | 0.00 | 0.00 | 0.00 | 84 | 1011.5 |
| 20260510064004 | 71 | 162 | 1.0 | 4.0 | 0.00 | 0.00 | 0.00 | 85 | 1012.1 |
| 20260510063509 | 70 | 138 | 1.0 | 8.0 | 0.00 | 0.00 | 0.00 | 85 | 1011.4 |
| 20260510063507 | 70 | 149 | 0.0 | 2.0 | 0.00 | 0.00 | 0.00 | 85 | 1012.0 |
| 20260510063016 | 70 | 242 | 0.0 | 2.0 | 0.00 | 0.00 | 0.00 | 85 | 1012.1 |
| 20260510063008 | 70 | 140 | 2.0 | 8.0 | 0.00 | 0.00 | 0.00 | 85 | 1011.4 |
| 20260510062507 | 70 | 144 | 1.0 | 6.0 | 0.00 | 0.00 | 0.00 | 84 | 1011.6 |
| 20260510062009 | 70 | 69 | 0.0 | 4.0 | 0.00 | 0.00 | 0.00 | 84 | 1011.8 |
| 20260510062007 | 70 | 239 | 0.0 | 3.0 | 0.00 | 0.00 | 0.00 | 84 | 1012.3 |
| 20260510061514 | 70 | 68 | 1.0 | 4.0 | 0.00 | 0.00 | 0.00 | 84 | 1011.9 |
| 20260510061506 | 70 | 99 | 0.0 | 2.0 | 0.00 | 0.00 | 0.00 | 84 | 1012.4 |
| 20260510061004 | 70 | 148 | 1.0 | 3.0 | 0.00 | 0.00 | 0.00 | 84 | 1012.3 |
| 20260510060503 | 70 | 204 | 0.0 | 3.0 | 0.00 | 0.00 | 0.00 | 84 | 1012.3 |
| 20260510060024 | 69 | 140 | 0.0 | 2.0 | 0.00 | 0.00 | 0.00 | 84 | 1012.5 |
| 20260510060010 | 69 | 86 | 1.0 | 3.0 | 0.00 | 0.00 | 0.00 | 84 | 1011.9 |
| 20260510055504 | 69 | 170 | 0.0 | 2.0 | 0.00 | 0.00 | 0.00 | 84 | 1012.3 |
| 20260510055004 | 69 | 115 | 0.0 | 2.0 | 0.00 | 0.00 | 0.00 | 84 | 1012.2 |
| 20260510054512 | 69 | 163 | 0.0 | 2.0 | 0.00 | 0.00 | 0.00 | 84 | 1012.2 |
| 20260510054006 | 69 | 163 | 0.0 | 2.0 | 0.00 | 0.00 | 0.00 | 83 | 1012.2 |
| 20260510054003 | 69 | 128 | 0.0 | 2.0 | 0.00 | 0.00 | 0.00 | 83 | 1011.6 |
| 20260510053508 | 69 | 134 | 0.0 | 2.0 | 0.00 | 0.00 | 0.00 | 83 | 1012.3 |
| 20260510053503 | 69 | 86 | 0.0 | 2.0 | 0.00 | 0.00 | 0.00 | 83 | 1011.6 |
| 20260510053023 | 69 | 86 | 0.0 | 2.0 | 0.00 | 0.00 | 0.00 | 83 | 1011.6 |
| 20260510053018 | 69 | 117 | 0.0 | 2.0 | 0.00 | 0.00 | 0.00 | 83 | 1012.1 |
| 20260510052508 | 69 | 86 | 0.0 | 2.0 | 0.00 | 0.00 | 0.00 | 83 | 1011.6 |
| 20260510052506 | 69 | 117 | 0.0 | 2.0 | 0.00 | 0.00 | 0.00 | 83 | 1012.1 |
| 20260510052006 | 69 | 86 | 0.0 | 2.0 | 0.00 | 0.00 | 0.00 | 82 | 1011.5 |
| 20260510051516 | 69 | 101 | 0.0 | 2.0 | 0.00 | 0.00 | 0.00 | 82 | 1012.1 |
| 20260510051007 | 69 | 101 | 0.0 | 2.0 | 0.00 | 0.00 | 0.00 | 82 | 1012.0 |
| 20260510050507 | 69 | 85 | 0.0 | 2.0 | 0.00 | 0.00 | 0.00 | 82 | 1011.4 |
| 20260510050014 | 69 | 185 | 0.0 | 2.0 | 0.00 | 0.00 | 0.00 | 83 | 1012.0 |
| 20260510050012 | 69 | 85 | 0.0 | 2.0 | 0.00 | 0.00 | 0.00 | 83 | 1011.4 |
| 20260510045506 | 69 | 182 | 0.0 | 2.0 | 0.00 | 0.00 | 0.00 | 83 | 1012.0 |
| 20260510045504 | 69 | 42 | 0.0 | 2.0 | 0.00 | 0.00 | 0.00 | 83 | 1011.4 |
| 20260510045010 | 68 | 108 | 0.0 | 2.0 | 0.00 | 0.00 | 0.00 | 85 | 1012.0 |
| 20260510045007 | 68 | 71 | 0.0 | 2.0 | 0.00 | 0.00 | 0.00 | 85 | 1011.5 |
| 20260510044515 | 68 | 70 | 1.0 | 2.0 | 0.00 | 0.00 | 0.00 | 84 | 1011.3 |
| 20260510044510 | 68 | 155 | 0.0 | 2.0 | 0.00 | 0.00 | 0.00 | 84 | 1012.0 |
| 20260510044006 | 68 | 153 | 0.0 | 2.0 | 0.00 | 0.00 | 0.00 | 85 | 1012.0 |
| 20260510044004 | 68 | 70 | 1.0 | 2.0 | 0.00 | 0.00 | 0.00 | 85 | 1011.3 |
| 20260510043504 | 68 | 83 | 0.0 | 2.0 | 0.00 | 0.00 | 0.00 | 86 | 1011.3 |
| 20260510043018 | 68 | 184 | 0.0 | 0.0 | 0.00 | 0.00 | 0.00 | 86 | 1012.0 |
| 20260510042506 | 68 | 184 | 0.0 | 0.0 | 0.00 | 0.00 | 0.00 | 86 | 1012.0 |
| 20260510042504 | 68 | 83 | 0.0 | 2.0 | 0.00 | 0.00 | 0.00 | 86 | 1011.4 |
| 20260510042013 | 68 | 83 | 0.0 | 2.0 | 0.00 | 0.00 | 0.00 | 86 | 1011.3 |
| 20260510042009 | 68 | 184 | 0.0 | 0.0 | 0.00 | 0.00 | 0.00 | 86 | 1012.0 |
| 20260510041521 | 68 | 184 | 0.0 | 0.0 | 0.00 | 0.00 | 0.00 | 86 | 1012.0 |
| 20260510041005 | 68 | 184 | 0.0 | 0.0 | 0.00 | 0.00 | 0.00 | 86 | 1011.9 |
| 20260510040507 | 68 | 83 | 0.0 | 2.0 | 0.00 | 0.00 | 0.00 | 86 | 1011.3 |
| 20260510040504 | 68 | 184 | 0.0 | 0.0 | 0.00 | 0.00 | 0.00 | 86 | 1011.9 |
| 20260510040024 | 69 | 184 | 0.0 | 0.0 | 0.00 | 0.00 | 0.00 | 85 | 1011.8 |
| 20260510035507 | 69 | 83 | 0.0 | 2.0 | 0.00 | 0.00 | 0.00 | 86 | 1011.1 |
| 20260510035004 | 69 | 83 | 0.0 | 2.0 | 0.00 | 0.00 | 0.00 | 86 | 1011.0 |
| 20260510034514 | 69 | 83 | 0.0 | 2.0 | 0.00 | 0.00 | 0.00 | 86 | 1011.0 |
| 20260510034510 | 69 | 196 | 0.0 | 2.0 | 0.00 | 0.00 | 0.00 | 86 | 1011.7 |
| 20260510034005 | 69 | 196 | 0.0 | 0.0 | 0.00 | 0.00 | 0.00 | 86 | 1011.7 |
| 20260510033508 | 69 | 83 | 0.0 | 2.0 | 0.00 | 0.00 | 0.00 | 85 | 1011.0 |
| 20260510033502 | 69 | 110 | 0.0 | 0.0 | 0.00 | 0.00 | 0.00 | 85 | 1011.6 |
| 20260510033020 | 70 | 83 | 0.0 | 2.0 | 0.00 | 0.00 | 0.00 | 85 | 1010.9 |
| 20260510033014 | 70 | 110 | 0.0 | 0.0 | 0.00 | 0.00 | 0.00 | 85 | 1011.6 |
| 20260510032506 | 70 | 83 | 0.0 | 2.0 | 0.00 | 0.00 | 0.00 | 85 | 1010.8 |
| 20260510032009 | 70 | 83 | 0.0 | 2.0 | 0.00 | 0.00 | 0.00 | 84 | 1010.9 |
| 20260510032007 | 70 | 110 | 0.0 | 1.0 | 0.00 | 0.00 | 0.00 | 84 | 1011.5 |
| 20260510031516 | 71 | 83 | 0.0 | 2.0 | 0.00 | 0.00 | 0.00 | 83 | 1010.9 |
| 20260510031514 | 71 | 105 | 0.0 | 2.0 | 0.00 | 0.00 | 0.00 | 83 | 1011.5 |
| 20260510031007 | 71 | 105 | 0.0 | 2.0 | 0.00 | 0.00 | 0.00 | 83 | 1011.5 |
| 20260510030513 | 71 | 83 | 0.0 | 2.0 | 0.00 | 0.00 | 0.00 | 84 | 1010.7 |
| 20260510030508 | 71 | 105 | 0.0 | 1.0 | 0.00 | 0.00 | 0.00 | 84 | 1011.4 |
| 20260510030011 | 71 | 105 | 0.0 | 2.0 | 0.00 | 0.00 | 0.00 | 83 | 1011.4 |
| 20260510030005 | 71 | 83 | 0.0 | 2.0 | 0.00 | 0.00 | 0.00 | 83 | 1010.7 |
| 20260510025509 | 71 | 105 | 0.0 | 2.0 | 0.00 | 0.00 | 0.00 | 83 | 1011.3 |
| 20260510025503 | 71 | 83 | 0.0 | 2.0 | 0.00 | 0.00 | 0.00 | 83 | 1010.6 |
| 20260510025007 | 71 | 103 | 0.0 | 2.0 | 0.00 | 0.00 | 0.00 | 84 | 1011.3 |
| 20260510024528 | 72 | 103 | 0.0 | 2.0 | 0.00 | 0.00 | 0.00 | 83 | 1011.1 |
| 20260510024505 | 72 | 84 | 0.0 | 2.0 | 0.00 | 0.00 | 0.00 | 83 | 1010.6 |
| 20260510024005 | 72 | 90 | 0.0 | 2.0 | 0.00 | 0.00 | 0.00 | 82 | 1010.4 |
| 20260510024003 | 72 | 88 | 0.0 | 2.0 | 0.00 | 0.00 | 0.00 | 82 | 1011.0 |
| 20260510023503 | 72 | 124 | 0.0 | 2.0 | 0.00 | 0.00 | 0.00 | 82 | 1010.9 |
| 20260510023011 | 73 | 134 | 0.0 | 2.0 | 0.00 | 0.00 | 0.00 | 83 | 1010.9 |
| 20260510023007 | 73 | 90 | 0.0 | 2.0 | 0.00 | 0.00 | 0.00 | 83 | 1010.3 |
| 20260510022504 | 72 | 90 | 0.0 | 2.0 | 0.00 | 0.00 | 0.00 | 83 | 1010.2 |
| 20260510022007 | 73 | 134 | 0.0 | 0.0 | 0.00 | 0.00 | 0.00 | 83 | 1010.7 |
| 20260510021523 | 73 | 115 | 0.0 | 2.0 | 0.00 | 0.00 | 0.00 | 82 | 1010.2 |
| 20260510021515 | 73 | 134 | 0.0 | 0.0 | 0.00 | 0.00 | 0.00 | 82 | 1010.7 |
| 20260510021008 | 73 | 134 | 0.0 | 0.0 | 0.00 | 0.00 | 0.00 | 82 | 1010.6 |
| 20260510021004 | 73 | 115 | 0.0 | 2.0 | 0.00 | 0.00 | 0.00 | 82 | 1010.0 |
| 20260510020507 | 73 | 115 | 0.0 | 0.0 | 0.00 | 0.00 | 0.00 | 82 | 1009.9 |
| 20260510020023 | 74 | 134 | 0.0 | 0.0 | 0.00 | 0.00 | 0.00 | 81 | 1010.3 |
| 20260510020020 | 74 | 115 | 0.0 | 0.0 | 0.00 | 0.00 | 0.00 | 81 | 1009.8 |
| 20260510015506 | 74 | 134 | 0.0 | 0.0 | 0.00 | 0.00 | 0.00 | 80 | 1010.3 |
| 20260510015503 | 74 | 115 | 0.0 | 0.0 | 0.00 | 0.00 | 0.00 | 80 | 1009.8 |
| 20260510015003 | 75 | 115 | 0.0 | 2.0 | 0.00 | 0.00 | 0.00 | 79 | 1009.7 |
| 20260510014517 | 75 | 134 | 0.0 | 2.0 | 0.00 | 0.00 | 0.00 | 78 | 1010.2 |
| 20260510014504 | 75 | 115 | 0.0 | 2.0 | 0.00 | 0.00 | 0.00 | 78 | 1009.6 |
| 20260510014009 | 76 | 134 | 0.0 | 2.0 | 0.00 | 0.00 | 0.00 | 77 | 1010.1 |
| 20260510014003 | 76 | 115 | 0.0 | 2.0 | 0.00 | 0.00 | 0.00 | 77 | 1009.6 |
| 20260510013511 | 76 | 134 | 0.0 | 2.0 | 0.00 | 0.00 | 0.00 | 76 | 1010.0 |
| 20260510013504 | 76 | 153 | 0.0 | 2.0 | 0.00 | 0.00 | 0.00 | 76 | 1009.5 |
| 20260510013019 | 77 | 142 | 0.0 | 2.0 | 0.00 | 0.00 | 0.00 | 75 | 1010.0 |
| 20260510013009 | 77 | 98 | 0.0 | 5.0 | 0.00 | 0.00 | 0.00 | 75 | 1009.4 |
| 20260510012504 | 77 | 94 | 0.0 | 5.0 | 0.00 | 0.00 | 0.00 | 76 | 1009.4 |
| 20260510012502 | 77 | 106 | 0.0 | 2.0 | 0.00 | 0.00 | 0.00 | 76 | 1010.1 |
| 20260510012007 | 77 | 149 | 0.0 | 2.0 | 0.00 | 0.00 | 0.00 | 75 | 1010.0 |
| 20260510012003 | 77 | 115 | 0.0 | 2.0 | 0.00 | 0.00 | 0.00 | 75 | 1009.4 |
| 20260510011517 | 78 | 141 | 0.0 | 2.0 | 0.00 | 0.00 | 0.00 | 76 | 1010.0 |
| 20260510011513 | 78 | 117 | 1.0 | 2.0 | 0.00 | 0.00 | 0.00 | 76 | 1009.4 |
| 20260510011007 | 78 | 164 | 0.0 | 2.0 | 0.00 | 0.00 | 0.00 | 74 | 1010.0 |
| 20260510010507 | 79 | 117 | 0.0 | 2.0 | 0.00 | 0.00 | 0.00 | 73 | 1009.3 |
| 20260510010502 | 79 | 184 | 0.0 | 2.0 | 0.00 | 0.00 | 0.00 | 73 | 1010.1 |
| 20260510010008 | 80 | 117 | 0.0 | 2.0 | 0.00 | 0.00 | 0.00 | 72 | 1009.2 |
| 20260510005507 | 80 | 88 | 0.0 | 4.0 | 0.00 | 0.00 | 0.00 | 73 | 1009.2 |
| 20260510005503 | 80 | 168 | 0.0 | 2.0 | 0.00 | 0.00 | 0.00 | 73 | 1010.0 |
| 20260510005015 | 81 | 88 | 0.0 | 4.0 | 0.00 | 0.00 | 0.00 | 71 | 1009.2 |
| 20260510005006 | 81 | 168 | 0.0 | 2.0 | 0.00 | 0.00 | 0.00 | 71 | 1009.9 |
| 20260510004507 | 81 | 194 | 0.0 | 2.0 | 0.00 | 0.00 | 0.00 | 72 | 1009.9 |
| 20260510004006 | 82 | 129 | 0.0 | 2.0 | 0.00 | 0.00 | 0.00 | 72 | 1010.0 |
| 20260510003507 | 82 | 90 | 1.0 | 5.0 | 0.00 | 0.00 | 0.00 | 71 | 1009.1 |
| 20260510003505 | 82 | 189 | 0.0 | 5.0 | 0.00 | 0.00 | 0.00 | 71 | 1009.9 |
| 20260510003008 | 83 | 148 | 1.0 | 5.0 | 0.00 | 0.00 | 0.00 | 70 | 1009.8 |
| 20260510002503 | 83 | 138 | 1.0 | 5.0 | 0.00 | 0.00 | 0.00 | 69 | 1009.8 |
| 20260510002006 | 84 | 91 | 1.0 | 3.0 | 0.00 | 0.00 | 0.00 | 66 | 1009.0 |
| 20260510001512 | 84 | 64 | 1.0 | 6.0 | 0.00 | 0.00 | 0.00 | 66 | 1009.0 |
| 20260510001004 | 84 | 79 | 2.0 | 7.0 | 0.00 | 0.00 | 0.00 | 66 | 1009.0 |
| 20260510000504 | 85 | 161 | 1.0 | 5.0 | 0.00 | 0.00 | 0.00 | 66 | 1009.7 |
| 20260510000019 | 85 | 130 | 1.0 | 10.0 | 0.00 | 0.00 | 0.00 | 65 | 1008.9 |
| 20260510000011 | 85 | 182 | 0.0 | 5.0 | 0.00 | 0.00 | 0.00 | 65 | 1009.6 |
| 20260509235506 | 85 | 82 | 2.0 | 10.0 | 0.00 | 0.00 | 0.00 | 64 | 1008.9 |
| 20260509235003 | 85 | 159 | 2.0 | 8.0 | 0.00 | 0.00 | 0.00 | 61 | 1008.9 |
| 20260509234529 | 86 | 144 | 1.0 | 4.0 | 0.00 | 0.00 | 0.00 | 58 | 1008.8 |
| 20260509234518 | 86 | 211 | 1.0 | 2.0 | 0.00 | 0.00 | 0.00 | 58 | 1009.5 |
| 20260509234010 | 85 | 142 | 1.0 | 4.0 | 0.00 | 0.00 | 0.00 | 58 | 1008.8 |
| 20260509234006 | 85 | 191 | 0.0 | 2.0 | 0.00 | 0.00 | 0.00 | 58 | 1009.5 |
| 20260509233506 | 86 | 142 | 1.0 | 3.0 | 0.00 | 0.00 | 0.00 | 60 | 1008.8 |
| 20260509233503 | 86 | 130 | 0.0 | 2.0 | 0.00 | 0.00 | 0.00 | 60 | 1009.4 |
| 20260509233014 | 86 | 150 | 1.0 | 3.0 | 0.00 | 0.00 | 0.00 | 62 | 1008.8 |
| 20260509233008 | 86 | 158 | 0.0 | 2.0 | 0.00 | 0.00 | 0.00 | 62 | 1009.4 |
| 20260509232504 | 86 | 155 | 2.0 | 3.0 | 0.00 | 0.00 | 0.00 | 62 | 1008.6 |
| 20260509232009 | 86 | 84 | 0.0 | 5.0 | 0.00 | 0.00 | 0.00 | 59 | 1008.6 |
| 20260509232002 | 86 | 190 | 0.0 | 2.0 | 0.00 | 0.00 | 0.00 | 59 | 1009.3 |
| 20260509231515 | 87 | 88 | 1.0 | 5.0 | 0.00 | 0.00 | 0.00 | 61 | 1008.6 |
| 20260509231508 | 87 | 199 | 0.0 | 2.0 | 0.00 | 0.00 | 0.00 | 61 | 1009.3 |
| 20260509231004 | 87 | 150 | 2.0 | 5.0 | 0.00 | 0.00 | 0.00 | 59 | 1008.6 |
| 20260509230506 | 87 | 149 | 2.0 | 4.0 | 0.00 | 0.00 | 0.00 | 59 | 1008.5 |
| 20260509230503 | 87 | 128 | 0.0 | 2.0 | 0.00 | 0.00 | 0.00 | 59 | 1009.2 |
| 20260509230015 | 87 | 148 | 2.0 | 3.0 | 0.00 | 0.00 | 0.00 | 59 | 1008.5 |
| 20260509230008 | 87 | 161 | 0.0 | 2.0 | 0.00 | 0.00 | 0.00 | 59 | 1009.2 |
| 20260509225505 | 87 | 124 | 0.0 | 2.0 | 0.00 | 0.00 | 0.00 | 59 | 1009.2 |
| 20260509225008 | 87 | 138 | 1.0 | 3.0 | 0.00 | 0.00 | 0.00 | 60 | 1008.4 |
| 20260509225004 | 87 | 261 | 0.0 | 3.0 | 0.00 | 0.00 | 0.00 | 60 | 1009.1 |
| 20260509224530 | 88 | 86 | 0.0 | 3.0 | 0.00 | 0.00 | 0.00 | 59 | 1008.5 |
| 20260509224515 | 88 | 41 | 0.0 | 3.0 | 0.00 | 0.00 | 0.00 | 59 | 1009.2 |
| 20260509224005 | 88 | 71 | 0.0 | 3.0 | 0.00 | 0.00 | 0.00 | 57 | 1008.5 |
| 20260509223511 | 87 | 159 | 1.0 | 3.0 | 0.00 | 0.00 | 0.00 | 60 | 1008.4 |
| 20260509223505 | 87 | 115 | 0.0 | 2.0 | 0.00 | 0.00 | 0.00 | 60 | 1009.1 |
| 20260509223024 | 87 | 265 | 1.0 | 3.0 | 0.00 | 0.00 | 0.00 | 60 | 1008.3 |
| 20260509223013 | 87 | 215 | 1.0 | 2.0 | 0.00 | 0.00 | 0.00 | 60 | 1009.1 |
| 20260509222509 | 87 | 224 | 0.0 | 2.0 | 0.00 | 0.00 | 0.00 | 60 | 1008.3 |
| 20260509222506 | 87 | 278 | 1.0 | 3.0 | 0.00 | 0.00 | 0.00 | 60 | 1009.1 |
| 20260509222005 | 87 | 80 | 0.0 | 6.0 | 0.00 | 0.00 | 0.00 | 62 | 1008.3 |
| 20260509221508 | 87 | 139 | 2.0 | 6.0 | 0.00 | 0.00 | 0.00 | 60 | 1008.9 |
| 20260509221002 | 87 | 28 | 0.0 | 2.0 | 0.00 | 0.00 | 0.00 | 62 | 1009.0 |
| 20260509220505 | 86 | 115 | 1.0 | 3.0 | 0.00 | 0.00 | 0.00 | 65 | 1008.3 |
| 20260509220017 | 86 | 83 | 1.0 | 3.0 | 0.00 | 0.00 | 0.00 | 64 | 1009.1 |
| 20260509220011 | 86 | 332 | 1.0 | 3.0 | 0.00 | 0.00 | 0.00 | 64 | 1008.5 |
| 20260509215507 | 85 | 324 | 1.0 | 3.0 | 0.00 | 0.00 | 0.00 | 66 | 1008.5 |
| 20260509215503 | 85 | 63 | 1.0 | 3.0 | 0.00 | 0.00 | 0.00 | 66 | 1009.2 |